Torna al catalogo

COSMOS 2328

AttivoNavigazionePO
NORAD 23790·PAYLOAD·🇷🇺 Russia

Lanciato Feb 19, 1996 da Plesetsk Cosmodrome

Loading…

Prossimi Passaggi (prossime 24 ore)

TLE

AggiornatoSource: Space-Track

Epoca: Sep 14, 2026, 06:11 UTC

1 23790U 96009D   26257.25779241  .00000006  00000-0 -27304-4 0  9991
2 23790  82.5724 262.7001 0007044 207.5922 152.4796 12.62605124408714

Traccia COSMOS 2328 in tempo reale con AllMySat

Download on the App Store